TimeEDT,TemperatureF,Dew PointF,Humidity,Sea Level PressureIn,VisibilityMPH,Wind Direction,Wind SpeedMPH,Gust SpeedMPH,PrecipitationIn,Events,Conditions,WindDirDegrees,DateUTC
12:53 AM,39.0,28.0,65,30.32,10.0,ESE,4.6,-,N/A,,Clear,120,2012-10-13 04:53:00
1:53 AM,39.0,28.9,67,30.30,10.0,SE,6.9,-,N/A,,Clear,130,2012-10-13 05:53:00
2:53 AM,39.9,30.0,68,30.29,10.0,SE,8.1,-,N/A,,Clear,130,2012-10-13 06:53:00
3:53 AM,41.0,32.0,70,30.27,10.0,SE,8.1,-,N/A,,Clear,140,2012-10-13 07:53:00
4:53 AM,42.1,32.0,67,30.23,10.0,SE,10.4,-,N/A,,Clear,130,2012-10-13 08:53:00
5:53 AM,43.0,32.0,65,30.19,10.0,SE,11.5,-,N/A,,Mostly Cloudy,130,2012-10-13 09:53:00
6:53 AM,45.0,32.0,60,30.18,10.0,SE,10.4,19.6,N/A,,Overcast,140,2012-10-13 10:53:00
7:53 AM,43.0,36.0,76,30.20,10.0,SE,10.4,-,0.01,Rain,Light Rain,130,2012-10-13 11:53:00
8:53 AM,43.0,39.0,86,30.17,5.0,ESE,9.2,-,0.02,Rain,Light Rain,120,2012-10-13 12:53:00
9:53 AM,44.1,39.9,85,30.15,10.0,East,6.9,-,0.01,,Overcast,90,2012-10-13 13:53:00
11:53 AM,48.0,42.1,80,30.08,10.0,ESE,10.4,-,N/A,,Overcast,120,2012-10-13 15:53:00
12:53 PM,48.9,44.1,83,30.04,10.0,SE,10.4,-,0.00,Rain,Light Rain,130,2012-10-13 16:53:00
1:26 PM,50.0,44.6,82,30.01,7.0,SSE,9.2,-,0.01,Rain,Light Rain,150,2012-10-13 17:26:00
1:53 PM,48.9,46.9,93,30.01,1.5,SSE,9.2,-,0.10,Rain,Rain,160,2012-10-13 17:53:00
2:00 PM,48.2,46.4,93,30.00,1.5,SSE,10.4,-,0.05,Rain,Heavy Rain,160,2012-10-13 18:00:00
2:11 PM,50.0,48.2,94,29.99,3.0,SSE,9.2,-,0.07,Rain,Light Rain,160,2012-10-13 18:11:00
2:53 PM,52.0,51.1,97,29.96,3.0,SSE,10.4,17.3,0.10,Rain,Light Rain,160,2012-10-13 18:53:00
3:11 PM,53.6,51.8,94,29.93,5.0,SSE,11.5,-,0.00,Rain,Light Rain,160,2012-10-13 19:11:00
3:48 PM,53.6,53.6,100,29.92,6.0,South,11.5,17.3,0.01,,Overcast,170,2012-10-13 19:48:00
4:53 PM,55.9,55.0,97,29.90,6.0,SSE,9.2,-,0.01,,Overcast,160,2012-10-13 20:53:00
5:53 PM,57.0,55.9,96,29.88,2.0,SSE,5.8,-,0.03,Rain,Light Rain,160,2012-10-13 21:53:00
6:07 PM,57.2,57.2,100,29.87,3.0,SSE,5.8,-,0.01,Rain,Light Rain,160,2012-10-13 22:07:00
6:21 PM,57.2,57.2,100,29.87,2.5,South,3.5,-,0.01,,Overcast,170,2012-10-13 22:21:00
6:53 PM,59.0,59.0,100,29.86,3.0,SSW,3.5,-,0.01,Rain,Light Rain,210,2012-10-13 22:53:00
7:30 PM,62.6,60.8,94,29.85,5.0,SSW,9.2,-,0.02,Rain,Light Rain,210,2012-10-13 23:30:00
8:02 PM,62.6,62.6,100,29.85,2.5,SSW,10.4,17.3,0.02,Rain-Thunderstorm,Thunderstorms and Rain,210,2012-10-14 00:02:00
8:12 PM,62.6,62.6,100,29.85,2.5,SSW,9.2,18.4,0.04,Rain-Thunderstorm,Light Thunderstorms and Rain,200,2012-10-14 00:12:00
8:17 PM,62.6,62.6,100,29.86,3.0,SSW,9.2,-,0.05,Rain,Rain,210,2012-10-14 00:17:00
8:24 PM,62.6,62.6,100,29.86,3.0,SSW,10.4,18.4,0.07,Rain,Rain,200,2012-10-14 00:24:00
8:31 PM,64.4,62.6,94,29.86,4.0,SSW,10.4,-,0.07,Rain,Light Rain,210,2012-10-14 00:31:00
8:53 PM,64.0,63.0,96,29.86,4.0,SSW,11.5,-,0.07,,Overcast,210,2012-10-14 00:53:00
9:41 PM,64.4,62.6,94,29.87,1.8,SW,9.2,16.1,0.06,Rain,Heavy Rain,230,2012-10-14 01:41:00
9:50 PM,64.4,62.6,94,29.87,3.0,SSW,6.9,-,0.06,Rain,Light Rain,210,2012-10-14 01:50:00
10:22 PM,64.4,62.6,94,29.86,4.0,SSW,8.1,-,N/A,,Overcast,210,2012-10-14 02:22:00
10:53 PM,64.9,63.0,93,29.86,5.0,SSW,9.2,-,N/A,,Overcast,200,2012-10-14 02:53:00
11:53 PM,66.0,63.0,90,29.83,6.0,SSW,10.4,17.3,N/A,,Overcast,200,2012-10-14 03:53:00